Starlink 32677

operational
NORAD ID: 63020 Int'l Des: 2025-032 Owner: SPXS Country: US Constellation: starlink
LEOCIRCULAR

关于 Starlink 32677

正在加载描述...

实时位置

正在加载3D地球...

即将过境

高度历史

Altitude vs Time

uPlot chart will show altitude changes over time

两行轨道根数

1 63020U 25032R 25305.50001348 .00027618 00000-0 10090-2 0 9995
2 63020 43.0035 340.1234 0001955 258.3949 101.6684 15.27590608 41009
Epoch: Nov 1, 2025 • Age: 25 hours

当前状态

高度 494.6 km
速度 7.62 km/s
星下点 -42.44°S, 0.63°W
发射日期 Feb 15, 2025
运行时间 0.7 years
类型 internet

技术详情

分类 Payload
质量 730.00 kg
干质量 700.00 kg
总质量 730.00 kg
长度 0.30 m
直径 4.10 m
跨度 29.00 m
形状 Box + pan
制造商 SPXS
平台类型 Starlink V2M
阶段状态 In Orbit
所有者/国家 SPXS/US

大型星座

Loading constellations...